YAMAL 202

Last updated on Tue Sep 22 2026 00:03:10 GMT+0000 (Coordinated Universal Time)

1 28089U 03053A 26264.76036508 -.00000080 00000+0 00000+0 0 9990 2 28089 6.5806 69.7207 0004780 131.0230 237.1960 1.00271996 83671
UTC large
Height (km)
Speed (km/s)
/
Latitude / Longitude
Inclination (degrees)
Orbital Period (minutes)
Azimuth
Elevation
Range (km)
Doppler Factor

Next 0 passes for location: London (51.5072 / 0.1276)

No passes found over London.
YAMAL 202